This demonstration page uses our WeatherBlox Daily Observations layout. Learn more.

Left ArrowRight Arrow

41.12389, -100.76542

Hourly Observations for September 19, 2020

Temp ( °F °C ) Dew Point ( °F °C ) Humidity (%) Winds ( mph kmh ) Pressure ( in mb ) Visibility ( mi km ) Precip ( " mm )
12:53 am 00:53 Clear 62 16.7 50 10 65 65 SE 15 24 30.07 1018 10 16 0.00 0.00
1:53 am 01:53 Clear 61 16.1 51 10.6 70 70 SE 13 20 30.05 1018 10 16 0.00 0.00
2:53 am 02:53 Clear 60 15.6 51 10.6 72 72 SE 10 17 30.03 1017 10 16 0.00 0.00
3:53 am 03:53 Clear 60 15.6 52 11.1 75 75 SSE 15 24 30.01 1016 10 16 0.00 0.00
4:53 am 04:53 Clear 59 15 52 11.1 78 78 SSE 12 19 30.01 1016 10 16 0.00 0.00
5:53 am 05:53 Clear 57 13.9 51 10.6 81 81 ESE 9 15 30.01 1016 10 16 0.00 0.00
6:53 am 06:53 Clear 55 12.8 50 10 83 83 ESE 9 15 30.01 1016 10 16 0.00 0.00
7:53 am 07:53 Sunny 56 13.3 50 10 81 81 SE 8 13 30.01 1016 10 16 0.00 0.00
8:49 am 08:49 Mostly Sunny 57 14 50 10 77 77 SE 8 13 30.01 1016 10 16 0.00 0.00
8:53 am 08:53 Sunny 58 14.4 50 10 75 75 SE 7 11 30.02 1017 10 16 0.00 0.00
9:53 am 09:53 Sunny 62 16.7 51 10.6 67 67 SE 9 15 30.01 1016 10 16 0.00 0.00
10:53 am 10:53 Sunny 67 19.4 51 10.6 57 57 S 13 20 30.01 1016 10 16 0.00 0.00
11:53 am 11:53 Sunny 72 22.2 52 11.1 50 50 S 14 22 29.98 1015 10 16 0.00 0.00
12:53 pm 12:53 Sunny 75 23.9 52 11.1 45 45 SSE 15 24 29.96 1015 10 16 0.00 0.00
1:53 pm 13:53 Sunny 83 28.3 51 10.6 33 33 SSE 16 26 29.91 1013 10 16 0.00 0.00
2:53 pm 14:53 Sunny 84 28.9 51 10.6 32 32 SSE 15 24 29.88 1012 10 16 0.00 0.00
3:53 pm 15:53 Sunny 85 29.4 50 10 30 30 S 20 31 29.86 1011 10 16 0.00 0.00
4:53 pm 16:53 Sunny 85 29.4 49 9.4 29 29 S 21 33 29.86 1011 10 16 0.00 0.00
5:53 pm 17:53 Sunny 82 27.8 49 9.4 32 32 SSE 20 31 29.86 1011 10 16 0.00 0.00
6:53 pm 18:53 Sunny 80 26.7 46 7.8 30 30 SSE 18 30 29.87 1012 10 16 0.00 0.00
7:53 pm 19:53 Clear 76 24.4 46 7.8 35 35 SE 13 20 29.88 1012 10 16 0.00 0.00
8:53 pm 20:53 Clear 74 23.3 47 8.3 38 38 SE 15 24 29.89 1012 10 16 0.00 0.00
9:53 pm 21:53 Clear 72 22.2 49 9.4 44 44 SE 14 22 29.91 1013 10 16 0.00 0.00
10:53 pm 22:53 Clear 70 21.1 49 9.4 47 47 SE 13 20 29.90 1013 10 16 0.00 0.00
11:53 pm 23:53 Clear 69 20.6 50 10 51 51 SE 13 20 29.89 1012 10 16 0.00 0.00

Powered by AerisWeather